Regional Weather Roundup
Issued by NWS

Home | Current Version | Previous Version | Graphics & Text | Print | Product List | Glossary On
Versions: 1 2 3 4 5 6 7 8 9 10 11 12 13 14 15 16 17 18 19 20 21 22 23 24 25 26 27 28 29 30 31 32 33 34 35 36 37 38 39 40 41 42 43 44 45 46 47 48 49 50
000
ASUS44 KMEG 292310
RWRTN
TENNESSEE HOURLY STATE WEATHER ROUNDUP
NATIONAL WEATHER SERVICE MEMPHIS TN
600 PM CDT THU SEP 29 2016

TNZ002-004-019-021-049-052-054-088>092-300000-
WEST TENNESSEE

CITY           SKY/WX    TMP DP  RH WIND       PRES   REMARKS
MEMPHIS INTL   PTCLDY    72  54  53 N12G18    30.12R
NWS MEMPHIS      N/A     70 N/A N/A MISG        N/A
JACKSON        PTCLDY   N/A N/A N/A N7        30.13S
DYERSBURG      PTCLDY   N/A N/A N/A MISG        N/A
UNION CITY     PTCLDY    64  54  68 NW9       30.12R
PARIS          CLEAR     61  52  72 CALM      30.12S
HUNTINGDON     CLEAR     64  54  68 VRB6G12   30.11R
LEXINGTON      MOCLDY    63  54  72 N6        30.12R
$$

TNZ008-025-027-028-033-062-065-066-300000-
NORTH MIDDLE TENNESSEE

CITY           SKY/WX    TMP DP  RH WIND       PRES   REMARKS
NASHVILLE      MOCLDY    61  51  70 NW8       30.10S
PORTLAND       PTCLDY    57  54  88 SW3       30.10S
CLARKSVILLE    LGT RAIN  60  54  80 NW6       30.11R
SMYRNA         CLOUDY    61  53  75 NW7       30.11S
COOKEVILLE     MOCLDY    61  52  72 CALM      30.09R
GALLATIN       MOCLDY    59  54  82 NW3       30.13R
CROSSVILLE     CLOUDY    57  46  66 W7        30.10R
$$

TNZ061-075-076-078-094-096-097-300000-
SOUTH MIDDLE TENNESSEE

CITY           SKY/WX    TMP DP  RH WIND       PRES   REMARKS
FAYETTEVILLE   CLOUDY    63  50  63 NW8       30.10R
TULLAHOMA      CLOUDY    57  48  72 N3        30.11R
WINCHESTER     CLOUDY    61  48  63 N6        30.10R
MCMINNVILLE    CLOUDY    61  50  67 NW6       30.10R
COLUMBIA       MOCLDY    61  61 100 NW5       30.10R
SHELBYVILLE    CLOUDY    63  54  72 NW9       30.11S
$$

TNZ017-018-042-046-047-300000-
NORTHEAST TENNESSEE

CITY           SKY/WX    TMP DP  RH WIND       PRES   REMARKS
TRI CITIES     CLOUDY    62  55  77 N5        30.04R
ELIZABETHTON   DRIZZLE   63  59  88 VRB6      30.03R
$$

TNZ012-013-036-069-073-074-300000-
CENTRAL EAST TENNESSEE

CITY           SKY/WX    TMP DP  RH WIND       PRES   REMARKS
KNOXVILLE      MOCLDY    67  48  50 W5        30.04R
OAK RIDGE      PTCLDY    66  46  48 CALM      30.07R
DOWNTOWN KNOXV MOCLDY    66  50  55 CALM      30.05R
GATLINBURG     MOCLDY    64  48  55 CALM      30.04R
MORRISTOWN     CLOUDY    63  50  63 N6        30.04R
JACKSBORO      MOCLDY    63  48  59 VRB3      30.10R
$$

TNZ083-085-099-300000-
SOUTHEAST TENNESSEE

CITY           SKY/WX    TMP DP  RH WIND       PRES   REMARKS
CHATTANOOGA    MOCLDY    67  46  47 NW13      30.06R
$$

SKY/WX REPORTED AS FAIR MEANS FEW OR NO CLOUDS BELOW
12 THOUSAND FEET.




USA.gov is the U.S. government's official web portal to all federal, state and local government web resources and services.